RH
6 5 5 5 4 4 4 3 4 4 5 7 8 9 9 9 10 10 10 11 11 10 9 9 10 9 10 10 10 11 12 12 12 12 12 12 12 11 11 10 11 11 12 13 13 15 16 17 19 19 20 21 21 22 23 24 24 24 25 26 25 25 24 23 23 24 23 23 25 31 39 43 42 43 49 53 54 54 56 57 55 53 53 53 49 45 44
5 5 5 5 4 4 4 4 4 4 6 8 9 10 10 10 11 11 11 12 11 11 10 10 10 10 10 11 11 12 12 12 13 13 13 14 13 13 13 12 12 12 12 13 14 15 16 18 19 20 21 22 22 23 24 24 25 26 27 28 29 30 29 26 24 23 20 21 24 29 38 46 46 46 50 54 53 52 53 54 54 53 55 56 52 45 43
5 5 5 4 4 4 3 3 4 5 7 8 9 10 11 11 12 12 12 12 11 11 11 10 11 11 11 11 12 12 12 12 13 13 14 15 14 15 15 14 14 13 13 14 14 15 17 18 19 20 22 23 24 24 24 25 26 26 28 30 31 34 35 33 33 34 33 33 36 38 41 47 48 46 48 51 49 49 51 52 54 54 53 57 56 48 43
5 5 4 4 4 3 3 4 5 7 8 10 10 11 11 12 13 12 12 12 11 11 11 11 11 11 12 13 12 13 13 12 13 14 14 15 15 16 16 16 16 14 14 14 15 16 17 18 20 21 23 24 25 24 25 25 26 27 28 29 31 34 37 38 39 43 43 41 43 47 48 49 49 44 43 47 47 46 49 51 55 53 49 52 56 50 44
5 4 4 4 3 3 4 4 6 8 9 10 11 12 13 13 13 12 12 11 11 12 12 12 12 12 13 13 13 13 14 13 14 14 15 15 16 16 17 17 17 16 15 15 16 17 18 19 20 21 23 25 25 25 25 26 27 28 29 29 30 33 36 40 42 43 43 41 42 48 50 50 48 42 40 46 48 47 49 52 54 53 50 49 51 50 46
4 4 4 3 3 4 4 5 7 9 10 11 12 13 13 13 12 12 11 11 12 12 12 12 13 13 13 13 14 14 14 15 15 15 15 16 16 17 18 18 18 18 17 17 17 18 19 19 21 22 24 26 26 25 25 27 27 29 29 29 30 31 33 37 41 42 42 43 43 44 47 47 46 42 40 44 48 46 48 51 52 53 56 54 51 51 48
4 3 3 3 3 4 4 6 9 10 11 12 12 13 13 12 12 11 11 12 12 12 12 12 12 12 12 12 13 14 15 16 17 17 17 16 17 18 18 19 19 19 18 18 18 19 20 21 21 23 25 27 27 26 26 27 28 29 30 30 29 30 31 33 37 40 40 42 42 40 42 45 44 42 40 42 47 48 46 49 52 54 58 57 54 52 49
3 3 3 3 4 5 6 8 10 11 11 12 12 13 12 12 12 11 11 12 12 12 12 11 11 11 11 11 12 13 14 15 17 19 18 18 18 18 19 20 20 19 19 19 20 20 21 22 23 24 26 28 28 27 27 28 30 30 31 31 30 30 29 29 34 37 36 38 41 40 42 44 40 38 39 41 46 47 45 48 54 55 54 55 54 53 50
3 3 3 4 5 6 7 9 10 11 11 11 12 12 12 12 11 11 11 11 11 11 11 11 10 10 10 10 11 11 12 14 17 18 19 19 19 19 20 20 20 20 20 20 21 21 22 23 24 24 26 28 28 27 28 30 31 32 31 31 31 29 28 28 30 34 35 36 39 40 40 39 36 37 40 41 43 46 47 52 58 57 53 54 54 53 51
3 3 3 4 5 6 8 9 9 10 10 11 11 11 11 11 11 11 11 10 11 11 10 10 10 10 10 10 9 10 11 13 15 17 19 20 20 20 20 20 20 20 20 21 22 22 23 23 24 25 26 28 28 28 30 31 32 32 31 31 30 29 29 28 28 31 34 34 39 42 38 35 36 40 41 39 40 46 51 53 56 58 57 56 56 55 52
3 3 4 4 4 6 7 7 8 9 9 9 9 10 10 10 10 10 10 10 10 10 10 10 9 9 9 9 9 9 9 11 13 16 19 20 20 21 20 20 21 20 21 22 23 23 24 24 24 25 26 28 29 29 30 32 33 33 31 29 29 29 29 29 29 31 32 33 36 37 33 34 39 42 43 43 44 48 54 56 55 56 58 57 56 54 53
3 4 4 4 4 5 5 6 7 8 8 8 7 7 7 8 9 9 10 10 10 10 10 10 9 9 9 9 9 8 8 9 11 14 18 21 21 21 21 21 21 21 21 23 23 24 25 24 24 26 27 29 30 30 31 34 35 33 30 28 28 29 29 30 31 32 32 33 33 33 36 42 45 45 46 48 49 49 54 58 58 57 55 54 54 53 53
5 5 4 4 5 4 4 5 6 7 7 7 6 6 6 6 7 7 8 9 9 9 10 9 9 9 9 9 9 8 8 9 10 14 18 21 21 21 22 22 21 21 22 23 24 25 25 25 26 26 28 29 30 32 34 36 36 33 30 28 28 29 30 31 33 33 33 34 37 43 48 47 45 48 50 49 49 48 47 52 58 58 54 52 53 54 53
6 6 6 6 5 5 5 5 5 6 6 6 6 5 4 5 5 5 6 7 8 9 9 9 9 9 9 9 8 8 8 8 10 14 18 20 21 22 22 22 21 22 23 24 25 25 25 26 26 27 29 31 32 34 36 37 36 33 30 30 30 31 31 32 35 35 34 35 38 41 43 41 43 53 57 56 58 57 53 56 60 58 55 55 56 57 55
6 6 6 6 5 5 5 5 5 5 5 5 5 5 4 4 4 4 5 6 7 8 8 9 9 9 9 9 8 8 8 8 9 13 18 21 22 22 22 22 22 22 24 25 25 26 26 27 27 28 30 32 33 34 37 38 37 33 31 31 32 33 34 35 38 39 38 39 38 36 38 41 47 57 64 65 68 66 61 60 62 60 58 58 59 59 57
7 7 7 7 6 6 6 6 5 5 5 5 5 5 5 4 4 4 4 4 5 7 8 8 9 9 9 9 8 8 8 8 9 12 17 21 22 22 22 22 22 23 25 25 26 26 27 27 27 29 30 32 33 34 37 40 39 35 33 32 32 34 36 37 39 40 40 42 45 46 47 50 54 61 66 69 73 73 63 56 59 63 62 59 60 60 59
7 8 8 8 8 8 8 8 7 7 7 6 6 6 5 5 5 5 4 4 5 5 6 7 8 9 9 8 9 8 8 9 9 10 16 21 22 22 22 22 23 24 25 26 26 27 27 28 28 30 32 33 33 35 38 39 37 34 32 32 33 35 36 38 39 41 42 43 46 51 55 57 58 63 67 69 75 78 68 57 58 64 65 62 61 62 61
6 7 8 8 8 9 9 9 10 9 9 8 8 7 7 6 6 5 5 5 5 5 5 6 7 8 9 8 8 8 8 9 8 9 14 19 22 22 22 23 24 25 25 26 26 27 28 28 28 31 33 34 35 38 39 37 35 33 31 30 32 34 37 38 39 41 43 44 45 49 55 59 59 62 68 71 72 76 78 74 68 66 68 68 65 64 63
6 6 6 7 8 8 9 10 10 10 10 10 9 9 8 8 7 7 7 6 6 6 5 5 6 7 8 8 8 8 8 9 9 8 11 16 20 22 22 22 23 24 25 26 25 26 28 28 29 31 34 35 37 40 42 40 36 33 31 30 30 33 37 40 40 41 44 45 44 43 48 55 60 64 70 73 74 78 87 89 82 74 72 72 68 65 64
11 9 7 6 6 6 7 8 9 10 10 10 11 10 10 9 9 8 8 7 7 7 6 5 6 6 7 8 8 8 8 8 9 8 9 13 17 20 21 21 22 23 24 24 25 26 27 28 29 32 34 35 37 40 43 43 40 35 33 33 32 33 37 41 43 44 45 47 48 48 51 59 67 69 70 74 79 84 90 93 91 84 77 73 71 67 64
17 16 14 12 9 7 6 6 6 8 8 9 10 10 10 10 9 9 9 9 8 8 8 7 6 6 7 8 8 8 8 8 9 9 8 10 14 17 19 20 21 22 22 23 24 25 27 27 29 32 34 36 38 40 41 41 41 38 35 35 35 35 38 44 48 50 51 54 60 64 66 68 72 73 73 76 81 85 89 93 93 88 81 77 73 69 66
18 18 17 17 15 13 10 8 6 6 7 8 8 8 9 9 9 10 10 10 9 9 9 9 8 7 7 7 8 8 9 8 9 9 8 9 11 14 17 18 19 21 21 22 23 25 26 27 28 32 35 36 38 41 41 40 40 39 37 37 38 37 39 45 51 54 57 59 62 66 67 67 70 73 76 79 81 83 88 92 95 93 87 81 76 72 68
16 16 16 16 17 17 16 14 10 8 7 8 8 8 8 8 8 9 10 9 10 10 10 9 9 8 7 8 8 9 9 9 9 9 9 9 9 12 16 17 19 20 20 21 23 24 26 27 28 31 35 37 39 40 40 41 40 39 39 40 41 40 39 42 47 51 54 55 57 62 65 68 71 75 78 82 84 85 87 92 97 98 92 85 81 76 72
15 15 15 15 16 16 17 17 16 13 9 8 8 9 8 8 7 8 8 8 9 9 9 9 9 9 9 8 8 8 9 9 9 9 9 9 9 11 14 17 19 20 21 22 22 24 26 27 28 32 36 38 39 40 41 41 41 40 40 41 42 41 39 40 45 49 51 53 57 62 66 70 73 78 82 85 87 87 89 93 98 99 97 92 86 81 77
15 15 16 16 16 17 18 18 19 18 14 10 8 8 9 8 8 7 7 8 8 9 9 9 9 10 10 9 9 9 10 10 10 9 9 9 10 11 13 16 18 20 21 23 23 24 26 27 29 33 37 39 40 41 42 43 42 42 44 43 43 43 39 38 44 49 51 53 55 59 65 71 74 79 83 86 88 89 91 94 97 100 101 100 93 86 83
15 16 16 17 17 18 19 20 20 21 19 14 8 7 9 10 8 8 8 8 8 8 9 9 9 9 10 10 11 11 10 10 10 10 9 10 10 11 13 16 19 20 22 24 24 25 27 28 30 34 38 40 42 43 43 44 44 43 46 47 46 44 41 39 42 48 52 53 55 58 62 67 71 75 79 83 87 90 92 95 98 100 103 103 99 92 87
14 15 16 17 18 19 21 22 23 21 19 14 9 7 10 11 9 7 8 8 9 10 10 9 9 9 10 11 12 12 11 11 11 10 10 10 10 12 14 16 19 22 24 25 26 26 28 29 32 36 38 40 44 45 44 45 45 43 45 50 49 46 44 42 43 49 54 57 59 60 60 64 68 72 76 80 85 90 93 96 99 101 103 103 100 96 91
14 15 17 17 19 21 22 24 24 19 14 12 8 6 10 13 11 7 7 9 11 12 11 10 9 9 10 12 14 14 13 12 11 10 11 11 11 13 15 17 20 23 25 27 28 28 29 31 34 38 39 39 43 46 45 45 46 45 45 50 51 48 47 46 48 54 59 61 62 62 61 63 67 70 74 77 81 87 93 97 100 102 102 102 101 98 93
14 16 18 18 20 22 25 25 21 13 9 8 6 6 11 16 13 8 8 9 11 13 12 10 8 8 10 13 15 16 15 13 12 11 11 12 12 14 16 18 21 24 26 29 30 29 31 34 36 38 39 39 42 45 44 43 47 48 47 49 51 50 49 49 51 55 60 63 65 65 64 65 67 70 73 76 79 84 91 96 99 101 101 101 102 100 95
14 18 20 20 22 25 26 24 16 9 7 8 6 8 15 19 17 12 9 10 12 13 12 10 9 10 12 15 18 18 17 15 13 12 12 13 14 15 18 20 24 26 28 30 32 32 34 37 39 40 39 38 41 43 40 38 42 46 46 48 50 50 50 51 53 56 60 63 66 67 67 67 68 70 74 77 80 83 87 92 97 100 101 101 102 102 99
16 19 20 22 25 27 24 18 11 8 10 11 11 14 20 23 20 15 11 10 11 11 11 10 11 13 16 18 20 19 18 16 15 13 13 14 15 18 21 23 26 29 31 33 34 35 37 39 41 40 40 39 41 42 38 34 36 40 43 45 48 50 51 53 56 58 59 61 63 66 68 68 68 71 75 79 83 85 86 89 94 99 102 101 101 101 101
19 22 23 26 27 23 16 12 11 12 15 16 17 20 24 24 22 20 18 15 13 13 13 14 15 18 21 21 21 21 19 18 16 15 15 16 18 21 24 26 30 32 33 34 36 39 40 41 41 40 40 40 39 40 38 35 35 38 42 45 48 51 53 55 58 59 59 60 61 64 67 68 70 73 77 82 86 88 89 90 94 98 101 102 100 100 100
23 24 26 25 20 14 11 13 15 16 18 18 19 22 25 25 24 25 26 25 24 22 22 21 22 24 24 23 23 22 21 20 19 18 19 21 23 25 28 31 32 34 35 36 38 41 42 42 41 40 40 39 36 36 38 38 38 40 44 46 49 53 56 58 60 60 60 60 60 62 65 68 71 75 81 86 90 92 92 93 94 97 100 102 101 99 99
24 25 24 18 12 12 15 17 18 19 20 21 22 24 25 26 25 26 29 30 30 29 27 26 27 27 26 25 24 23 22 22 22 22 23 26 27 29 31 33 33 35 37 38 39 41 42 41 41 41 40 38 35 33 36 39 41 42 45 47 50 54 58 60 62 62 60 59 60 61 64 67 70 76 82 88 93 95 96 96 96 97 99 101 101 100 99
24 23 18 12 12 17 18 18 19 21 21 22 23 24 25 25 25 26 27 28 28 28 27 27 27 26 25 25 24 23 23 24 25 26 28 29 29 30 32 34 36 38 40 39 40 42 41 40 41 42 39 37 36 35 37 40 43 44 47 50 53 57 60 61 62 62 61 60 60 61 62 65 69 75 81 89 95 99 100 99 98 98 99 99 100 101 100
22 19 13 11 16 19 18 16 18 20 20 21 23 23 24 24 24 25 25 25 25 25 25 25 25 25 24 24 24 24 25 28 29 30 30 30 31 32 34 36 38 40 40 40 40 40 39 39 42 41 38 36 39 41 41 42 44 47 51 54 57 60 62 62 61 61 62 61 61 61 62 64 68 73 80 88 95 100 102 102 100 100 99 97 98 101 101
20 15 11 14 19 19 17 16 17 18 19 21 21 22 23 23 23 24 24 24 24 24 24 24 24 24 24 25 25 27 29 30 32 32 31 32 34 35 36 37 38 39 40 40 39 38 38 40 41 40 39 40 43 46 47 47 47 51 55 58 60 62 63 62 61 60 61 61 61 61 62 64 68 73 79 85 93 99 103 104 103 102 100 98 97 100 102
18 12 12 17 20 19 18 18 18 18 19 20 20 21 22 22 23 24 24 24 24 24 23 24 25 24 25 25 26 28 30 31 32 33 34 34 35 36 36 36 35 36 38 37 35 36 39 41 41 41 44 46 48 49 51 51 52 55 58 60 62 63 63 62 62 60 60 61 61 61 62 64 68 72 77 82 89 96 101 104 105 104 103 101 99 99 101
15 12 14 20 22 21 21 21 20 21 23 22 21 22 23 22 23 24 23 23 24 24 24 25 26 26 26 27 28 29 31 33 35 37 36 34 34 34 35 34 33 33 34 35 35 37 40 41 41 43 47 51 52 52 54 55 56 58 60 61 62 62 61 61 61 60 59 60 60 60 62 65 67 71 75 79 84 90 96 102 103 102 102 103 102 101 101
15 12 16 22 24 23 23 24 25 26 27 26 24 24 24 24 24 24 23 24 25 25 25 27 28 28 29 30 31 33 33 35 37 37 36 35 34 33 34 34 32 31 32 35 38 40 41 41 43 47 50 53 53 53 54 56 56 57 59 60 60 59 58 58 59 58 56 57 58 59 61 64 67 70 73 77 82 87 92 97 101 102 102 103 102 102 103
15 13 17 24 28 27 26 30 33 32 31 31 31 29 28 28 27 26 27 27 28 28 29 31 33 35 34 34 35 37 38 39 39 38 38 38 38 37 37 38 36 34 36 39 41 44 45 45 47 50 52 53 52 52 52 53 53 53 54 55 54 54 54 54 55 55 54 54 56 57 60 64 68 71 74 78 83 87 91 95 98 101 102 101 101 102 103
15 14 17 27 33 32 31 36 39 38 38 39 38 35 34 34 32 32 33 33 33 35 36 37 38 39 40 40 41 43 43 42 42 42 42 43 42 41 41 42 42 43 44 44 44 47 49 49 50 52 52 52 50 49 49 48 47 47 48 49 49 49 49 50 51 52 52 52 53 56 59 63 68 72 77 81 85 89 92 95 97 99 101 102 101 101 101
17 15 17 25 34 37 37 38 39 41 44 46 44 42 42 40 38 38 40 40 40 42 43 43 43 44 46 47 48 48 48 48 48 48 48 48 48 46 45 46 48 50 50 48 46 48 50 50 50 50 49 49 48 47 45 43 42 41 43 44 44 44 44 45 47 49 49 50 53 56 60 64 69 74 78 82 86 88 91 94 96 98 101 102 102 101 101
18 17 16 20 28 35 40 42 42 42 45 46 46 47 47 45 44 44 44 44 45 47 48 48 48 49 50 50 50 50 50 50 50 49 48 48 49 48 46 45 46 47 47 45 43 44 46 47 47 46 46 48 49 48 44 41 39 38 39 40 39 39 40 42 44 46 48 50 54 58 62 66 71 76 79 83 85 86 89 92 94 97 100 102 103 102 101
18 18 18 18 21 26 34 40 43 45 47 48 47 48 48 46 46 46 46 45 46 47 47 47 48 48 47 47 47 48 47 46 47 48 48 47 46 46 45 44 44 45 45 43 40 40 43 45 44 42 40 40 42 41 38 36 34 33 33 34 34 34 36 39 41 44 47 50 55 61 65 69 74 79 82 84 84 84 86 89 92 94 97 101 102 102 102
18 18 18 18 19 22 25 29 34 39 44 46 48 51 52 50 50 50 49 49 50 49 48 49 50 49 49 49 50 51 51 50 51 52 50 46 44 42 40 39 40 41 39 37 34 33 32 31 29 27 25 24 24 24 25 25 25 26 26 28 29 31 35 38 41 45 48 53 58 63 67 71 76 81 85 86 84 83 85 88 91 93 96 99 101 102 102
19 18 17 17 19 20 20 20 22 27 31 34 38 43 46 48 50 52 52 53 55 55 55 54 54 53 53 52 52 52 50 46 42 38 35 32 31 30 28 26 26 25 23 22 21 19 17 16 15 15 15 15 16 17 17 19 21 22 24 26 29 33 37 42 45 49 52 56 60 64 68 73 79 83 86 87 86 85 85 87 89 92 94 98 100 101 101
18 17 17 17 18 18 18 19 20 21 21 23 26 28 30 33 37 40 42 44 47 48 49 49 48 47 46 44 41 38 33 28 24 22 20 19 18 17 16 15 15 13 13 13 13 12 12 12 13 13 14 15 16 17 18 19 22 25 29 32 37 41 46 50 53 56 58 59 61 64 69 74 80 83 85 85 86 86 85 86 89 93 96 99 100 101 101
17 17 17 17 16 16 17 19 19 19 18 19 20 21 21 21 23 24 26 28 30 31 31 32 32 31 30 28 25 22 19 16 15 14 14 13 12 11 11 11 11 10 10 10 10 10 11 13 15 17 19 20 20 22 24 26 30 34 38 42 46 50 53 56 58 61 63 64 65 69 73 77 81 82 82 82 83 85 86 87 91 96 100 101 101 102 102
15 16 16 16 16 16 16 17 17 18 18 18 17 17 17 17 17 18 18 18 19 19 19 19 19 19 18 16 15 14 13 12 11 12 11 11 10 10 9 9 9 8 8 8 9 10 13 16 20 24 27 28 29 30 32 34 38 41 45 49 51 54 57 60 63 66 68 70 72 74 76 78 78 79 79 79 80 83 85 87 92 98 103 103 102 102 103
12 13 14 15 16 15 15 16 16 17 17 17 17 17 17 16 16 16 16 15 15 16 16 15 14 14 13 12 12 11 11 10 10 10 10 10 9 9 8 8 8 8 8 8 9 12 15 19 23 27 30 32 33 35 37 39 42 45 49 53 57 60 64 68 70 71 72 73 74 75 75 75 75 76 78 79 80 82 84 84 86 93 100 101 99 100 103
11 12 13 14 15 15 15 16 16 17 17 17 17 17 17 16 16 16 16 15 15 16 15 15 14 13 12 12 12 12 11 11 10 9 10 10 9 8 8 7 7 8 8 9 11 15 18 21 25 28 31 33 36 38 41 43 45 49 54 58 63 68 72 75 75 74 74 73 74 73 73 73 74 75 77 79 80 81 79 76 75 82 90 94 94 96 101
Wind_Speed
29 26 23 21 18 17 15 14 13 12 12 12 11 11 10 9 9 7 6 5 4 4 4 4 3 2 1 1 2 3 4 5 6 7 8 9 10 11 12 13 14 16 17 18 20 22 24 26 28 30 32 34 36 38 39 41 42 44 46 48 50 52 54 55 54 53 54 55 58 60 63 67 70 72 74 75 77 80 81 83 86 86 84 84 89 92 88
25 23 20 18 17 15 14 13 12 12 12 11 10 10 9 8 7 6 6 5 4 3 3 2 1 1 0 2 3 4 5 6 7 8 9 10 11 12 13 14 15 16 18 19 21 22 24 27 28 30 33 35 36 38 40 41 43 44 46 48 49 51 53 55 56 55 56 56 58 60 63 67 70 73 74 76 78 80 82 84 86 87 85 82 87 93 91
22 20 18 16 15 14 13 12 12 12 11 10 9 8 8 6 6 5 5 5 4 3 2 1 1 0 2 3 4 5 6 7 8 9 10 11 12 13 14 15 16 17 18 20 22 23 25 27 29 31 33 35 37 39 40 42 43 45 47 48 49 50 51 54 56 58 59 60 61 64 66 68 71 73 74 76 79 81 83 86 86 88 87 82 83 91 93
20 18 16 15 14 13 12 12 12 11 10 10 9 8 7 6 5 5 5 4 3 2 1 1 1 2 4 5 6 7 7 8 10 10 11 12 13 14 15 16 17 18 19 21 22 24 25 27 29 31 33 35 37 39 41 42 44 45 47 49 49 50 51 53 55 56 58 60 61 63 66 69 70 72 75 77 79 81 83 86 86 88 91 86 82 88 94
17 16 14 13 12 12 12 12 12 10 10 9 8 7 6 6 5 5 4 4 3 2 1 2 3 4 5 6 7 8 9 10 11 11 12 13 14 15 16 17 18 19 20 21 23 25 26 27 29 31 34 36 37 39 41 43 45 46 48 49 50 50 50 51 53 55 56 58 60 61 65 68 69 72 75 77 79 82 83 85 86 87 90 89 87 88 93
15 14 12 12 11 11 12 12 11 10 9 8 7 6 6 5 4 4 3 3 2 2 2 3 4 6 6 7 8 9 10 11 12 12 13 13 14 15 16 17 18 19 20 22 23 25 26 28 29 31 34 36 38 39 41 44 46 47 49 50 51 51 50 50 52 54 56 57 59 60 63 67 69 71 75 77 79 81 83 85 87 86 86 88 90 90 91
13 12 11 11 11 11 12 11 10 9 8 7 7 6 5 4 3 3 2 2 2 3 3 4 5 6 7 8 9 10 11 12 13 13 14 14 15 16 17 18 19 19 20 22 23 25 26 27 29 31 33 36 38 40 42 44 46 48 49 50 51 51 51 51 51 53 55 56 58 60 62 66 69 71 74 76 78 81 83 85 86 86 85 86 89 90 90
11 10 10 10 10 11 11 10 9 8 7 6 6 5 4 3 3 2 1 1 2 3 4 4 6 7 8 9 10 11 12 14 14 14 14 15 15 16 17 18 19 20 21 22 24 25 26 27 29 31 33 35 37 39 42 45 46 48 50 50 51 51 51 51 52 52 54 56 57 59 62 65 69 71 73 75 77 79 83 85 86 87 87 87 89 90 91
10 9 9 10 10 11 10 9 8 7 6 6 5 5 4 3 1 0 1 1 2 3 4 5 6 8 9 10 11 12 14 14 15 15 15 16 16 17 18 19 20 21 22 23 24 25 26 28 29 31 33 35 37 39 42 45 46 48 50 51 51 52 52 52 52 53 54 55 57 58 61 65 68 71 72 74 76 78 81 84 85 86 89 90 90 92 94
9 9 9 9 9 10 9 8 7 6 6 5 5 4 4 3 2 1 2 2 3 4 5 6 7 9 10 11 13 14 15 15 16 16 16 17 17 18 19 20 21 22 23 24 25 26 27 28 30 32 34 35 37 39 42 44 46 48 49 50 51 52 52 53 53 53 54 56 57 58 61 65 67 69 71 74 76 78 79 81 84 86 89 91 91 94 96
8 8 8 8 8 9 9 8 7 6 6 5 5 5 4 4 3 3 3 3 4 5 6 7 8 9 11 12 14 15 16 16 17 17 17 18 18 18 19 20 21 22 24 24 26 27 28 29 30 32 34 36 37 39 42 44 46 47 49 50 52 52 52 53 54 54 55 55 56 57 60 64 66 68 71 74 77 78 78 80 84 86 88 89 91 93 94
7 7 7 7 7 8 9 9 8 7 7 6 5 5 5 5 5 4 4 5 5 6 7 8 9 10 12 13 15 16 17 17 18 18 18 18 19 19 20 21 22 23 24 25 26 27 28 29 30 32 34 36 37 39 42 44 45 47 49 50 51 52 53 53 54 55 55 56 57 58 60 63 66 68 71 73 76 77 77 78 81 84 86 88 90 91 92
7 6 6 6 6 7 8 9 9 9 8 7 6 6 6 6 6 6 6 6 7 7 8 10 10 11 13 14 15 17 17 18 18 19 19 19 19 19 20 21 22 23 25 26 26 27 28 29 31 32 34 36 37 39 41 43 45 47 48 50 51 52 53 54 55 56 56 57 59 60 61 64 66 68 70 72 74 76 76 77 79 82 86 89 90 91 93
6 6 6 6 6 7 8 9 10 10 9 8 8 8 7 7 8 8 8 8 8 8 9 11 12 12 13 15 16 17 18 19 19 20 20 20 20 20 20 21 23 24 25 26 27 28 28 29 31 32 34 36 37 39 41 43 45 47 48 49 50 52 53 54 55 56 57 58 59 59 60 63 65 67 70 72 75 77 79 80 81 83 86 89 91 92 93
4 4 4 5 5 6 7 8 9 9 9 9 9 9 9 9 9 9 9 10 10 10 11 12 13 14 14 15 16 18 19 20 20 21 21 20 20 20 21 22 23 24 25 26 27 28 29 29 31 33 34 36 37 39 41 43 45 46 47 49 50 51 53 54 55 56 57 58 59 59 61 63 65 67 69 72 75 78 81 82 82 84 87 89 91 92 93
2 2 2 3 3 4 5 5 6 7 8 8 9 10 10 11 11 11 12 12 12 12 12 13 14 15 16 16 17 18 19 20 21 21 21 21 21 21 21 22 23 25 26 26 28 28 29 30 32 33 35 37 38 40 41 42 44 45 46 48 50 51 52 53 54 56 57 58 59 61 62 64 65 67 68 70 72 76 79 81 82 84 86 87 89 91 92
0 1 1 2 2 3 3 4 5 6 7 8 9 10 11 12 12 13 14 14 14 14 14 14 15 16 17 17 18 19 19 20 21 22 22 22 22 22 22 23 24 25 26 27 28 29 29 30 32 33 35 37 38 40 41 42 43 44 46 48 49 51 52 53 54 56 57 58 59 60 61 63 65 67 68 70 71 73 77 80 81 82 84 86 88 90 92
2 2 3 4 4 5 5 6 6 7 8 9 10 11 12 13 14 14 15 15 16 16 16 16 16 17 18 18 19 19 20 21 22 22 23 22 22 22 23 23 24 25 26 28 29 29 29 30 32 33 35 37 38 40 41 43 44 44 46 47 49 50 52 53 54 55 57 58 59 59 61 63 65 66 68 69 71 72 75 79 81 82 83 85 87 90 92
5 4 5 5 6 7 8 8 9 9 10 10 11 12 13 14 15 15 16 17 17 17 17 17 17 18 19 19 20 20 20 21 22 23 23 23 23 23 23 24 25 26 27 28 29 29 30 31 32 34 35 36 38 39 41 43 44 45 46 47 49 50 52 53 55 56 57 58 59 60 61 62 65 66 67 69 71 73 75 77 80 82 83 84 86 88 91
11 9 8 7 7 8 9 10 11 12 12 13 13 14 14 15 15 16 17 17 18 18 18 18 19 19 20 20 20 21 21 22 22 23 24 24 24 24 24 25 25 27 28 28 29 30 30 31 33 34 35 37 38 39 40 41 43 45 46 48 49 51 52 54 55 56 57 58 59 61 62 63 64 66 68 69 71 72 74 75 78 81 82 83 85 87 89
13 13 13 11 10 9 10 11 12 14 15 15 16 16 16 16 17 17 17 18 18 18 19 19 20 20 20 21 21 22 23 23 23 23 24 25 25 25 25 25 26 27 28 29 30 31 31 32 33 34 36 37 38 40 41 41 43 45 46 48 50 51 53 55 56 56 58 59 60 62 63 64 65 66 68 69 70 71 73 74 76 78 80 82 83 85 88
12 13 14 14 14 14 13 13 13 14 16 17 18 19 19 19 19 19 19 19 20 20 20 20 21 21 21 22 22 23 24 24 24 24 25 25 25 26 26 26 27 28 29 30 30 31 32 33 34 35 36 37 39 40 41 42 43 45 46 48 50 51 52 54 55 56 57 58 59 60 62 63 64 65 67 68 70 71 72 73 74 76 79 81 82 84 86
11 12 13 14 15 16 17 17 16 15 16 17 19 20 21 22 22 21 21 21 21 21 21 22 22 22 22 22 23 24 24 25 25 25 25 26 26 26 27 27 28 28 29 30 31 32 32 33 34 35 36 37 39 40 41 42 44 46 47 48 49 50 51 53 54 55 55 56 57 59 61 63 64 65 66 67 69 70 72 73 74 75 77 79 81 83 85
11 13 14 15 16 17 18 19 19 19 18 18 19 21 22 23 24 24 23 23 22 23 23 22 22 22 23 23 24 25 25 26 26 26 26 27 27 27 27 28 28 29 30 31 32 32 33 34 35 36 36 37 39 40 41 42 44 46 47 48 49 50 51 52 54 55 55 56 57 58 61 63 64 65 66 67 68 70 71 73 73 75 76 78 80 82 84
12 13 15 16 17 19 20 21 21 22 22 21 21 21 23 24 25 25 25 24 24 23 23 23 23 23 23 24 24 25 26 26 27 27 27 27 28 28 28 28 29 30 30 31 32 33 33 34 35 36 36 37 39 40 40 42 44 46 47 48 49 50 51 52 53 55 55 55 56 58 59 62 63 65 66 67 68 70 71 72 73 75 76 77 79 81 83
11 13 15 17 19 20 21 23 24 25 25 24 23 22 23 24 25 26 26 26 25 24 24 24 23 24 24 25 25 26 26 27 27 28 28 28 28 28 29 29 29 30 31 32 32 33 33 34 35 36 37 37 38 40 40 42 44 45 46 48 49 50 51 52 53 54 55 55 56 57 58 60 63 64 66 67 68 69 70 72 73 74 75 76 78 79 81
12 13 15 18 20 22 24 26 27 28 27 26 24 23 23 23 23 24 25 25 25 25 24 24 24 24 25 25 26 26 27 27 28 28 28 28 28 29 29 29 30 30 31 32 33 33 34 34 35 36 37 37 38 39 40 41 43 45 46 47 49 50 50 52 53 53 54 55 56 57 59 60 62 64 66 67 68 69 70 71 72 73 74 75 76 78 79
13 14 16 19 21 24 27 29 31 31 29 26 24 23 23 23 23 23 23 24 25 25 25 24 24 25 25 25 26 26 27 27 28 28 28 28 28 29 29 30 30 31 31 32 33 33 33 34 35 36 37 38 38 39 40 41 43 45 46 47 48 49 50 51 52 53 54 55 56 58 59 60 62 64 66 67 68 69 70 71 72 73 74 75 76 76 78
14 15 18 21 24 26 30 32 33 32 29 27 24 23 22 22 22 21 21 22 23 24 24 24 24 25 25 25 26 26 27 27 27 28 27 28 28 28 29 30 30 31 31 32 33 33 33 34 36 36 38 38 38 39 41 41 42 44 46 46 47 48 49 50 51 52 53 54 56 57 59 60 62 64 65 67 69 69 70 71 72 72 73 74 75 76 77
15 17 20 23 26 30 33 34 34 31 28 26 23 22 21 21 21 20 20 20 21 23 23 23 24 24 24 25 25 26 27 27 27 27 27 27 28 28 29 29 30 31 32 32 32 33 33 34 35 37 38 39 39 40 41 42 42 43 45 46 46 48 49 49 50 51 52 54 55 56 58 60 61 63 65 67 69 70 70 71 71 72 73 74 75 75 76
16 19 23 26 29 32 34 34 32 29 27 24 22 20 20 20 20 19 19 18 19 21 21 22 22 23 23 24 25 26 27 27 27 27 27 27 27 28 28 29 30 30 31 31 32 33 34 34 35 37 38 39 39 40 42 43 43 44 45 45 46 47 48 49 50 51 52 53 54 55 57 59 60 62 64 67 68 70 71 71 72 72 73 73 74 74 75
19 22 26 29 32 34 34 32 29 26 24 23 21 19 19 19 19 18 17 17 18 19 19 20 21 22 23 24 25 26 27 27 27 27 27 27 27 27 28 29 29 30 31 31 31 32 33 34 35 37 38 40 40 40 41 43 44 44 44 45 46 47 48 49 49 50 52 53 54 55 57 58 60 62 64 66 68 70 71 72 72 72 73 73 74 74 74
21 25 29 32 34 33 32 29 26 23 22 21 19 18 18 18 18 17 17 17 17 18 18 19 20 21 22 24 25 26 26 26 26 26 26 26 27 27 28 28 29 29 30 31 31 31 32 34 36 37 38 39 40 40 40 41 43 43 43 45 46 47 48 49 49 50 52 53 54 56 57 58 60 62 64 66 68 69 71 72 72 73 73 74 74 74 74
24 28 31 33 33 31 28 25 23 21 20 19 18 17 17 17 17 17 17 17 17 18 18 19 20 21 22 24 24 25 25 25 26 26 26 26 26 27 27 28 28 29 30 31 31 32 33 34 35 37 38 39 40 40 40 40 42 43 43 45 46 47 47 48 49 50 51 52 54 55 57 58 60 62 64 66 68 70 71 72 73 73 74 75 75 74 73
27 30 32 32 31 27 24 22 20 19 18 18 17 16 16 16 16 16 16 17 17 18 18 19 20 21 22 23 24 24 24 25 25 25 25 25 26 26 27 27 28 29 30 31 32 32 33 34 35 36 38 38 39 40 41 41 42 43 43 44 46 47 47 48 49 50 51 52 54 55 56 58 60 61 64 66 68 70 71 72 73 74 74 75 75 74 73
28 31 32 31 28 25 22 21 19 17 17 16 16 15 15 16 16 16 16 17 17 17 18 19 20 21 22 23 24 24 24 24 24 25 25 25 26 26 27 27 28 29 30 31 32 33 33 34 34 35 37 38 38 39 40 41 41 42 43 44 45 46 47 48 49 50 51 53 54 55 56 58 59 61 64 66 68 70 71 72 73 74 74 75 76 75 74
29 31 31 29 26 23 22 20 19 17 17 16 16 15 15 16 16 17 17 17 17 18 18 19 20 21 22 23 23 24 24 24 24 24 25 25 26 27 27 28 29 29 30 31 32 33 33 33 34 34 35 36 36 37 39 40 41 42 43 44 45 46 47 48 49 50 52 53 54 55 56 57 59 61 64 66 68 70 71 72 73 74 75 75 76 76 75
29 30 30 28 25 23 21 20 19 18 18 17 17 17 16 17 17 17 17 18 18 18 19 20 20 21 22 22 23 23 24 24 25 25 26 26 27 28 28 29 29 29 30 31 32 32 32 32 32 33 33 34 35 36 37 39 40 41 42 43 44 45 47 49 50 51 53 54 55 56 57 58 60 62 64 66 68 69 71 72 73 74 75 76 76 77 76
28 29 29 27 24 22 21 20 20 19 19 19 18 18 18 18 18 18 18 18 18 19 19 19 20 21 21 22 23 24 24 25 26 26 27 28 28 29 29 30 30 30 30 31 31 32 32 31 31 32 32 33 34 35 36 38 39 41 42 44 45 45 47 49 51 52 53 55 56 57 58 60 61 62 64 66 68 69 70 72 73 74 75 76 76 77 77
27 28 27 25 24 22 21 20 20 20 20 20 20 19 19 19 19 18 18 19 19 19 19 19 20 21 22 22 23 24 25 25 26 27 27 28 29 29 30 31 31 31 31 31 30 31 32 32 32 32 33 34 34 35 36 37 39 41 43 45 46 47 48 50 52 53 54 55 56 58 59 60 62 63 65 66 68 69 71 72 73 74 75 76 76 77 77
26 26 26 24 23 22 21 20 20 20 20 20 20 20 19 18 18 18 18 18 18 18 19 20 20 21 22 22 23 24 25 25 26 26 27 28 28 29 29 30 31 31 31 31 30 31 32 32 32 32 33 34 35 36 37 38 39 41 44 46 48 49 50 51 53 54 55 56 57 58 59 61 63 64 66 67 69 70 71 72 73 74 75 76 77 77 77
24 25 24 23 23 22 21 20 20 20 20 20 19 19 18 18 18 18 18 18 18 19 19 20 20 21 22 23 23 24 25 25 26 26 27 27 28 28 28 29 30 30 31 31 31 31 32 33 33 32 33 35 37 37 38 39 40 42 44 46 49 50 52 53 54 56 56 57 58 59 60 62 63 65 67 68 69 71 72 73 74 74 75 76 77 78 78
23 24 23 22 21 21 21 20 20 19 19 19 18 18 18 18 18 18 19 19 19 20 20 21 21 22 22 23 24 25 26 26 27 27 28 28 29 29 29 29 29 30 31 31 31 31 32 33 33 34 34 36 38 40 41 42 43 44 45 48 50 52 53 54 56 57 57 58 59 60 61 63 64 66 67 69 70 71 72 73 74 75 76 77 77 78 78
23 23 23 22 21 21 21 20 20 20 19 19 19 19 19 19 19 19 20 20 21 21 21 22 22 23 24 24 25 26 27 27 28 28 29 29 30 31 32 31 31 31 31 32 32 32 32 33 35 36 36 37 40 43 44 45 47 47 48 50 52 53 54 56 57 57 58 59 60 61 63 64 66 67 68 69 70 71 72 73 74 75 76 77 78 78 78
23 23 23 23 22 22 21 21 21 21 21 20 20 20 20 20 20 20 21 21 22 22 23 23 24 25 26 26 27 27 29 29 30 30 31 31 32 32 33 34 34 33 33 33 33 34 35 36 38 40 41 41 43 45 47 49 50 51 51 51 53 54 56 57 57 58 59 60 61 63 64 66 67 69 70 71 71 71 72 73 74 75 77 78 78 79 79
24 23 23 23 23 23 23 23 23 23 23 23 23 23 23 23 23 23 23 24 24 25 25 25 26 27 27 28 29 29 30 31 32 33 34 34 34 34 35 36 36 37 37 37 37 38 40 41 43 45 46 46 46 47 49 50 52 53 53 53 54 55 56 57 58 59 60 61 62 63 65 67 69 70 71 72 72 72 72 73 74 76 77 78 79 80 80
24 24 24 24 24 24 25 25 25 25 25 25 26 26 26 26 26 27 27 27 27 28 28 28 29 29 30 31 31 32 33 34 34 35 36 37 37 37 37 38 39 40 41 41 41 42 44 46 47 48 49 49 49 49 50 51 53 54 54 55 55 56 57 58 59 60 61 62 63 64 66 68 70 71 72 73 73 73 73 73 74 76 77 78 79 80 81
25 26 25 25 25 25 26 26 27 27 27 27 28 28 28 28 29 29 30 30 31 31 31 32 32 32 33 33 34 34 35 36 37 37 38 40 41 41 40 40 41 42 43 44 44 45 46 48 50 50 50 51 51 51 52 53 54 55 55 55 56 57 58 59 60 61 62 64 65 66 68 69 71 72 72 73 73 73 73 74 74 76 77 78 78 79 81
27 27 27 27 27 27 27 27 28 29 29 29 30 30 30 31 31 31 31 32 33 33 34 34 35 35 35 36 36 36 37 39 40 40 41 42 44 45 45 45 45 44 44 45 46 47 48 49 50 51 51 51 52 52 53 54 56 56 56 57 58 59 60 61 62 63 65 66 67 68 69 70 71 72 72 73 73 73 74 75 75 76 77 78 78 79 80
29 29 29 29 29 29 29 29 29 30 31 31 31 32 32 32 32 32 33 33 33 34 35 36 36 36 37 37 38 38 39 40 42 43 43 44 46 47 48 48 49 48 47 47 47 47 47 47 49 50 51 52 53 54 55 56 57 58 58 59 60 61 62 63 64 65 67 68 69 69 70 71 71 72 72 73 74 75 76 76 76 76 77 79 79 78 79
29 29 30 30 31 31 31 31 31 31 32 32 32 32 33 32 32 33 33 34 34 35 36 37 37 38 38 39 39 40 41 42 43 44 44 45 47 49 51 51 51 52 51 49 48 47 46 46 48 50 52 53 55 56 57 58 59 59 60 61 63 63 64 65 66 67 68 68 69 70 71 72 72 73 74 75 76 77 78 78 78 77 78 79 79 79 79
29 29 30 30 31 32 32 32 32 32 32 32 32 32 33 33 33 33 34 35 35 36 37 38 38 38 39 39 40 41 42 44 45 45 45 46 48 50 52 53 53 53 53 53 51 50 48 48 49 52 54 55 57 58 60 61 61 61 62 64 65 66 66 67 68 68 68 68 69 71 72 74 74 75 75 76 78 79 79 80 80 79 79 80 80 79 79
Wind_Direction
140 141 142 142 143 143 144 146 146 146 145 141 139 139 140 140 140 143 152 152 156 173 168 159 157 147 132 70 35 16 358 348 344 343 342 342 343 344 342 341 341 341 342 344 345 346 347 349 352 354 355 356 357 357 357 357 357 356 356 356 356 355 354 355 357 357 358 359 1 3 4 3 5 5 6 6 5 6 6 5 5 5 5 2 1 3 3
142 143 143 144 145 144 145 147 147 147 144 140 140 141 140 140 143 151 156 150 156 179 178 169 176 171 337 341 350 347 339 336 337 336 334 335 338 340 338 335 335 335 337 339 340 342 345 347 350 352 353 354 355 355 355 356 356 355 355 355 356 356 354 354 355 355 356 358 360 3 5 5 5 6 7 7 6 6 6 6 5 5 5 3 360 2 4
144 145 147 147 146 146 147 146 146 146 143 139 140 140 138 141 148 155 154 150 155 159 161 226 231 279 350 347 345 339 332 327 326 327 330 333 335 336 334 332 331 332 333 335 337 340 343 345 347 350 351 352 353 353 354 354 354 354 354 355 355 356 355 354 355 356 357 359 0 2 4 5 6 6 7 7 7 7 7 6 6 5 6 4 359 359 3
148 149 149 148 148 148 149 148 146 144 142 140 140 138 140 143 147 149 147 147 149 133 105 296 309 347 351 349 342 336 329 324 322 323 327 331 333 332 331 330 330 330 331 333 335 338 340 342 344 347 349 350 351 352 352 353 353 353 353 354 354 355 356 356 357 358 358 358 360 1 3 4 5 6 7 7 6 7 7 7 6 5 6 6 1 358 1
151 151 151 150 150 151 151 149 147 145 143 142 141 142 145 146 144 145 140 136 126 89 24 337 346 353 350 348 341 334 328 322 321 323 326 328 329 329 328 328 329 329 330 332 334 336 338 340 342 345 347 348 349 350 351 352 352 353 353 353 353 354 356 357 357 358 358 358 359 1 2 3 4 5 7 7 6 7 7 7 7 6 5 6 5 2 1
153 153 153 153 153 153 153 151 148 147 145 145 147 149 150 147 141 138 130 120 101 61 22 353 352 351 348 345 340 335 329 324 323 325 326 326 326 326 327 327 329 329 329 330 332 334 336 338 340 343 344 346 347 349 351 351 352 352 352 352 352 352 354 357 358 357 358 358 359 360 1 2 3 5 7 8 6 6 7 8 7 7 5 4 5 4 2
154 155 155 155 155 155 155 153 150 150 149 151 156 157 156 151 143 133 113 91 70 44 19 358 351 348 347 344 339 335 331 329 328 328 327 325 324 324 325 326 327 328 328 329 331 332 334 336 338 341 343 344 346 348 350 351 351 351 351 351 351 351 352 356 358 358 358 358 358 359 1 1 3 6 7 7 7 6 6 7 7 8 7 5 4 4 3
156 156 155 156 157 158 157 155 154 156 158 162 165 166 165 161 153 139 97 57 36 21 6 354 349 346 344 341 337 333 332 332 332 331 328 325 323 323 324 325 327 328 328 328 330 331 333 335 337 339 341 343 346 347 349 350 350 350 350 350 350 350 351 354 356 357 358 358 358 359 0 1 3 5 6 7 7 6 5 7 7 8 8 7 5 4 4
158 157 156 158 161 163 161 160 161 166 171 175 177 180 182 182 186 192 2 6 7 358 348 343 344 343 341 338 335 333 332 333 333 331 328 325 324 323 324 324 326 328 328 329 330 331 332 334 336 338 341 343 345 347 349 349 350 350 349 349 349 350 351 352 354 356 357 358 358 359 360 1 3 5 5 6 7 7 6 6 7 7 8 8 7 5 5
162 160 160 162 167 170 170 170 174 179 183 186 191 197 201 214 233 269 311 328 338 337 334 335 336 336 336 336 335 333 333 333 333 331 328 326 324 324 324 324 326 327 328 329 330 331 332 333 335 338 341 343 344 347 348 348 349 349 349 349 349 350 351 352 353 355 356 357 358 358 359 1 3 4 5 5 6 7 6 6 7 8 8 8 8 7 6
166 164 165 169 174 181 185 187 190 193 196 202 208 216 227 239 250 268 291 311 320 321 324 328 328 328 331 333 335 334 333 332 332 331 329 327 326 324 323 324 326 327 329 329 330 332 332 333 335 338 340 342 344 346 347 347 348 348 348 349 349 350 351 352 353 354 355 356 357 357 359 1 2 3 5 5 6 7 7 6 7 9 9 9 9 8 7
173 173 174 178 185 192 197 202 206 208 213 220 227 235 243 249 258 269 280 296 307 310 315 318 319 322 327 331 333 334 333 332 331 331 330 328 326 324 323 324 326 327 328 330 330 331 332 333 335 337 339 341 343 345 346 346 347 347 348 349 349 350 351 351 352 353 354 355 356 357 358 360 1 3 4 5 5 6 7 6 6 8 9 10 10 9 9
185 189 193 196 200 205 210 214 217 221 228 235 243 250 255 259 266 273 277 286 295 301 307 310 311 317 323 327 331 333 333 333 333 332 331 328 326 324 323 324 326 327 328 330 331 331 332 332 334 336 338 341 343 344 344 345 346 347 348 349 349 350 351 351 352 353 354 355 356 358 358 359 0 2 3 4 4 5 6 6 6 7 9 10 10 10 10
198 205 210 214 215 217 222 224 225 230 237 245 253 261 268 269 271 275 277 282 289 295 299 302 305 311 318 323 327 330 332 333 334 333 331 328 326 325 324 324 325 327 328 329 330 331 331 332 333 335 337 339 341 343 343 345 346 347 348 349 349 350 350 351 352 352 353 354 356 357 357 357 359 1 1 3 3 3 5 6 7 7 8 9 10 10 10
199 210 219 225 228 229 231 232 233 238 245 252 260 269 276 277 277 279 281 283 286 289 292 296 300 306 312 318 322 326 330 333 334 334 331 328 326 325 324 324 325 326 328 329 330 330 330 331 332 334 337 339 340 342 344 345 346 347 348 349 350 350 351 351 352 352 353 354 354 356 356 357 359 360 0 2 3 3 3 5 6 6 7 9 10 10 9
176 202 217 229 237 241 242 243 246 251 257 264 269 274 280 282 281 281 281 282 284 286 288 292 296 301 306 311 317 321 327 331 332 333 330 328 327 325 324 324 324 326 327 328 329 330 330 331 332 334 337 338 340 342 343 344 345 346 348 349 350 350 351 351 352 352 353 354 354 355 356 357 358 359 359 1 3 3 3 4 6 6 7 8 9 9 9
151 238 258 264 268 270 271 271 272 274 275 277 279 281 283 285 285 284 283 282 283 284 286 288 291 295 300 305 311 315 321 327 330 330 330 328 326 325 324 324 325 326 328 328 329 329 330 331 332 334 336 338 340 341 342 343 345 346 348 349 350 350 350 351 352 353 353 354 354 355 356 356 357 358 358 360 2 2 2 3 5 6 7 7 9 9 9
350 325 312 302 296 293 290 288 289 288 288 288 287 288 288 288 287 286 285 284 283 283 284 285 287 291 295 300 305 309 315 321 325 328 328 327 326 325 325 325 326 327 328 328 328 329 329 330 332 334 335 337 339 340 341 343 345 346 348 349 350 350 350 351 352 353 353 353 354 355 356 356 356 357 358 358 360 1 2 3 4 5 7 7 8 9 10
25 358 332 313 304 299 295 293 291 290 290 291 290 290 290 290 289 288 287 285 283 283 283 283 285 288 291 295 299 304 309 315 320 324 327 326 325 325 326 326 327 327 327 328 328 329 329 330 332 334 335 337 338 340 341 342 344 346 347 348 349 350 350 351 352 352 353 353 353 354 355 356 355 356 357 358 358 0 2 2 3 4 6 7 8 9 10
43 32 16 351 325 308 298 294 291 288 287 287 287 287 288 288 288 288 287 287 286 285 285 284 285 286 288 290 294 299 304 309 314 319 323 325 324 323 325 326 326 327 327 328 328 329 329 330 332 333 335 336 338 340 341 342 343 344 346 347 348 349 350 350 351 352 352 353 353 354 355 356 355 356 357 357 358 359 0 2 3 4 5 6 7 8 9
38 32 26 17 3 343 320 303 294 289 286 285 283 283 284 285 285 287 288 289 289 288 288 287 286 286 287 288 291 295 300 304 308 314 319 322 323 323 324 325 325 326 327 328 328 329 329 330 332 334 335 337 338 339 340 342 343 344 345 346 347 349 350 350 350 351 352 353 354 354 354 355 355 355 356 357 357 358 359 1 2 3 4 5 7 8 9
23 19 16 12 8 1 349 332 313 299 292 288 285 284 283 284 284 284 286 288 289 290 290 288 287 286 287 287 290 293 297 300 303 308 313 318 321 321 322 323 324 325 326 327 328 329 329 330 332 334 335 336 337 339 340 341 342 343 344 346 346 347 348 349 350 351 352 352 353 353 353 354 355 355 355 356 357 357 358 359 1 2 3 4 6 7 8
5 3 1 359 357 354 351 345 334 318 303 293 288 286 284 283 282 282 282 284 285 287 288 288 288 287 288 289 290 292 295 297 300 304 307 312 317 319 320 321 322 324 326 327 327 328 329 330 332 333 335 336 337 338 339 340 341 342 343 344 345 345 347 348 348 349 351 352 352 353 353 354 354 355 355 355 356 356 357 359 360 1 2 3 4 6 7
346 346 346 346 345 343 341 339 336 329 317 301 290 285 283 280 279 278 278 279 280 282 285 287 289 289 290 291 292 292 295 298 299 301 303 307 312 316 317 319 320 322 324 326 327 327 328 330 331 333 334 335 336 337 339 340 340 341 342 343 343 344 345 346 347 348 350 351 352 353 353 354 354 355 355 355 355 356 356 358 359 360 1 2 3 5 6
332 334 335 336 336 335 334 332 330 329 324 313 299 288 283 281 277 275 275 275 276 279 282 286 289 291 292 292 292 294 296 298 299 300 301 303 308 312 315 317 319 321 323 325 326 327 328 329 331 332 333 335 335 336 338 339 339 340 341 341 342 343 344 345 347 348 349 350 351 353 354 354 355 355 355 355 355 355 356 357 357 359 360 1 2 3 5
320 324 327 328 328 328 328 328 326 325 324 319 309 297 289 285 280 275 273 273 274 276 278 282 286 289 291 293 294 296 297 298 300 300 301 302 305 308 312 314 317 319 321 323 325 326 327 329 330 331 333 334 335 335 337 338 338 339 340 340 341 342 343 344 346 347 348 349 350 352 353 354 355 355 355 355 355 355 355 356 357 358 359 360 1 2 4
310 315 318 320 322 324 324 324 324 322 321 318 312 303 296 292 286 278 273 271 272 274 276 279 283 287 291 293 296 298 299 299 300 301 301 301 303 306 310 313 315 318 320 322 324 326 327 328 330 331 332 333 334 334 336 338 337 338 339 340 341 341 342 343 345 347 348 349 350 351 352 354 354 355 355 355 355 355 355 355 356 357 358 359 360 1 2
304 310 315 318 321 323 323 324 324 322 319 316 311 303 298 297 294 285 275 270 269 271 273 276 280 284 289 293 296 298 300 301 301 302 302 302 303 306 309 312 314 316 319 322 323 325 326 328 329 330 331 332 334 334 335 337 337 337 338 340 340 341 342 343 344 346 347 348 349 350 351 353 354 355 355 355 355 355 355 355 356 356 356 358 359 360 1
307 314 319 321 321 322 323 324 324 321 318 314 308 302 298 299 299 292 282 274 270 270 272 274 278 282 287 292 296 299 301 302 303 302 302 302 304 306 308 311 313 316 319 321 322 324 326 327 328 329 330 331 333 333 334 336 337 336 337 339 340 340 341 342 343 345 346 348 349 350 351 352 354 355 355 355 355 355 355 355 355 355 355 356 357 358 360
312 319 323 323 322 322 323 323 322 319 316 312 306 298 296 299 300 296 288 279 274 272 272 274 277 282 287 292 297 300 303 304 304 303 303 303 304 306 308 311 313 316 318 320 322 323 325 327 328 328 329 330 332 333 333 334 336 336 336 338 339 340 340 342 343 344 346 347 348 349 350 352 353 354 354 354 354 354 355 355 355 355 355 355 356 357 358
316 321 323 322 322 322 322 321 319 316 314 311 305 297 296 300 301 297 292 286 279 276 275 276 279 283 287 293 298 301 303 304 304 304 304 305 306 308 309 311 313 315 317 320 322 323 325 326 327 327 328 330 332 333 333 333 335 336 336 337 338 339 340 341 342 344 345 346 347 349 349 351 352 353 353 353 353 354 354 355 355 355 355 354 355 356 357
322 324 323 322 322 321 320 319 317 314 312 310 304 297 296 300 301 298 294 290 285 282 280 281 282 286 290 295 299 302 303 305 306 306 306 307 308 309 311 312 314 315 317 319 322 323 324 326 326 326 328 329 330 332 332 332 334 335 336 336 337 338 339 341 342 343 344 346 347 348 349 350 351 352 352 352 353 353 353 354 355 355 355 354 354 354 355
327 326 324 323 322 321 319 318 316 314 313 311 305 300 299 301 303 301 297 294 291 288 286 286 288 291 294 297 300 302 305 307 308 308 309 309 310 310 312 312 314 316 317 319 322 323 324 325 326 326 327 328 329 331 332 332 333 334 335 335 336 338 339 341 342 343 344 345 346 347 348 349 350 351 352 352 352 352 353 354 354 355 355 354 353 353 353
329 326 325 324 324 323 322 321 319 318 317 315 310 305 304 305 306 304 301 298 296 294 293 293 294 296 298 300 302 305 307 308 309 310 310 311 310 311 312 313 314 316 318 319 321 323 324 325 325 326 326 328 329 330 331 332 333 334 334 335 335 337 338 340 342 343 343 344 345 346 347 348 349 350 351 352 352 352 352 353 354 354 354 354 353 352 352
329 327 326 327 328 328 327 326 324 323 322 319 315 310 308 308 309 308 306 303 300 299 298 298 298 299 301 303 305 307 308 308 310 310 310 310 310 311 312 314 316 318 319 320 321 323 324 325 325 325 326 328 329 330 331 333 333 333 333 334 335 336 337 339 341 342 343 344 345 346 346 347 347 348 350 351 352 352 352 352 353 354 354 353 352 352 352
328 328 329 331 332 333 333 332 329 327 325 323 320 316 313 313 313 312 311 309 306 305 304 303 302 302 304 305 306 308 308 309 310 311 310 311 312 313 314 315 317 319 320 320 321 323 324 324 325 325 326 328 329 330 331 332 332 332 332 333 334 335 336 338 339 341 342 343 344 345 345 345 346 347 349 350 351 351 351 352 352 353 353 353 352 351 351
328 330 333 335 336 337 338 338 337 334 330 327 324 321 319 317 316 315 314 314 312 310 309 308 307 307 306 307 308 308 309 310 311 311 312 313 314 315 316 316 318 319 320 319 320 322 323 324 325 325 326 328 329 330 330 330 330 331 332 332 333 334 335 336 338 340 341 343 344 344 345 345 345 347 348 349 350 351 351 351 351 352 352 352 351 350 350
330 333 336 337 338 340 342 344 344 341 338 334 329 327 324 321 319 318 317 316 316 315 313 312 312 312 311 311 311 312 313 314 315 315 315 315 316 316 317 317 317 319 319 319 320 321 322 323 324 325 326 328 329 329 329 329 330 331 331 332 333 334 335 336 337 339 340 342 342 343 344 344 345 346 347 348 349 350 350 350 350 351 351 351 351 350 350
332 335 337 338 339 342 345 347 347 346 344 340 336 332 330 327 324 324 322 321 320 320 319 318 317 317 317 317 318 318 318 319 319 318 318 318 318 318 317 317 318 318 319 319 320 321 321 323 325 326 327 328 329 329 329 329 329 330 330 331 333 334 335 335 337 338 340 341 341 342 343 344 345 345 346 347 348 349 349 349 350 350 350 350 350 349 349
332 335 337 339 340 343 346 348 348 348 347 345 341 338 336 334 331 329 327 326 326 326 325 324 324 323 323 323 323 322 322 321 321 321 320 320 319 319 319 318 319 319 319 320 321 322 322 324 327 328 328 329 329 330 330 329 329 330 330 331 333 334 334 335 336 337 339 340 341 342 343 343 344 345 345 346 347 348 348 348 349 349 349 349 349 348 348
332 334 337 339 341 344 346 347 348 349 348 346 344 342 340 338 336 334 333 333 333 332 331 330 330 329 328 326 326 324 324 323 322 322 322 321 320 320 320 319 320 320 321 322 323 324 324 326 328 329 329 329 330 330 330 330 330 330 330 330 332 333 334 334 335 336 338 339 340 341 342 342 343 343 344 345 346 346 347 347 348 348 348 348 347 347 347
330 333 336 338 341 344 346 346 347 349 348 346 345 343 342 342 342 341 341 340 339 338 336 335 334 333 331 330 328 327 326 326 325 324 323 322 321 321 321 321 321 322 323 323 325 326 326 326 328 329 329 329 328 328 329 330 330 330 329 329 331 332 333 333 334 335 337 338 339 340 341 341 342 342 343 343 344 345 346 346 346 347 347 347 346 346 346
327 330 333 336 338 341 343 343 344 345 346 345 345 345 345 346 346 346 345 344 343 342 340 338 337 335 334 333 331 330 329 329 328 327 326 325 324 324 324 324 324 325 324 324 326 327 327 326 325 326 327 327 326 326 327 328 328 329 329 329 330 331 332 332 333 334 335 337 338 339 339 340 340 341 342 342 343 344 344 345 345 345 345 346 345 345 345
322 326 329 331 332 334 337 339 340 341 341 341 342 343 344 345 346 346 345 344 343 342 341 339 338 337 336 335 334 332 331 331 331 330 330 329 327 327 326 326 326 326 325 324 324 324 323 322 322 322 324 325 324 324 326 327 327 328 329 329 330 330 331 331 332 333 334 335 336 337 337 338 339 339 340 341 342 343 343 343 343 344 344 344 344 344 344
317 320 324 326 327 328 330 331 333 335 335 335 336 337 338 339 341 341 340 340 339 338 337 337 336 335 334 334 334 332 332 331 331 330 329 327 326 325 324 323 323 323 321 320 320 320 321 320 320 320 322 324 324 324 325 325 326 327 328 329 329 329 329 330 331 331 332 333 334 334 335 336 337 338 339 340 341 341 342 342 342 342 342 342 342 342 343
312 314 318 321 323 324 325 326 327 328 329 329 331 331 331 332 332 332 332 332 332 331 330 330 330 329 329 329 329 329 328 327 326 326 324 322 321 320 319 318 318 318 318 318 319 321 321 321 320 321 323 324 324 324 324 324 325 326 328 328 328 328 328 329 330 330 331 332 332 333 333 334 335 337 338 338 339 340 340 340 340 340 340 340 340 341 341
308 309 312 315 318 321 323 324 324 325 326 326 327 327 327 326 326 326 326 326 325 325 325 324 324 324 324 324 324 325 325 323 322 321 320 318 316 315 315 316 317 317 317 319 321 322 322 321 321 323 324 324 324 324 324 324 324 326 327 328 328 328 328 329 329 330 330 330 331 331 332 333 334 335 336 337 337 338 338 338 338 338 338 338 338 339 339
304 305 308 311 314 317 320 322 323 323 324 324 324 324 324 324 323 323 323 323 323 322 322 322 321 322 322 322 323 324 323 320 319 318 317 315 314 314 314 315 316 316 317 319 320 321 321 322 323 323 323 323 323 324 324 324 325 326 327 328 328 328 328 329 329 329 328 329 329 330 330 331 333 334 335 335 335 335 336 336 336 336 336 336 337 337 337
302 304 306 308 311 314 317 319 320 321 321 322 322 322 321 321 321 321 320 320 320 320 320 320 320 320 321 321 321 321 320 318 316 316 315 315 314 314 314 314 315 315 317 318 319 320 323 323 323 322 322 322 322 323 324 324 325 326 327 327 327 327 328 328 328 327 327 328 329 329 330 331 332 333 333 333 333 333 333 334 334 334 334 334 335 336 336
302 303 305 307 309 311 313 315 317 318 319 319 320 320 319 319 319 318 318 317 317 317 317 317 317 318 318 318 318 318 317 315 313 313 314 313 313 312 312 313 313 315 316 318 319 321 323 323 321 320 320 320 321 322 322 323 324 325 326 326 326 326 326 326 326 326 327 327 328 329 329 330 331 332 332 332 331 331 331 332 333 333 333 333 334 335 335
303 304 305 306 307 309 311 312 314 315 316 317 318 318 317 317 317 316 315 315 315 315 315 315 315 316 316 316 316 316 314 311 310 311 311 311 311 311 311 312 313 314 316 317 319 320 320 320 318 317 317 318 319 320 321 322 322 323 324 324 324 324 325 325 325 325 326 327 327 328 328 329 329 330 330 330 329 329 330 330 332 333 333 332 333 334 334
303 304 305 305 306 307 308 310 311 312 314 314 315 314 314 313 313 313 312 312 312 313 313 313 314 315 315 315 314 313 311 308 307 308 309 309 309 309 309 310 312 313 314 316 317 318 318 318 317 316 315 317 318 319 319 320 321 322 322 322 322 323 323 323 324 324 325 326 326 326 326 327 328 328 328 328 328 328 329 330 331 333 333 332 332 333 333